Lapse_Rate
7.7 7.8 8.0 8.2 7.8 8.3 9.3 9.1 8.4 8.2 7.9 8.1 7.5 7.6 7.2 7.2 7.0 7.2 7.1 7.0 6.9 6.6 6.2 6.0 5.9 5.8 5.8 5.7 5.5 5.2 5.2 5.3 5.3 5.2 5.1 5.2 5.3 5.3 5.4 5.5 5.5 5.5 5.6 5.6 5.1 4.7 5.1 5.7 5.9
7.3 7.6 7.7 7.9 8.1 9.4 9.5 8.9 8.5 8.4 8.0 8.1 8.0 7.7 7.2 7.2 7.2 7.1 6.9 6.9 6.8 6.6 6.4 6.0 5.8 5.7 5.7 5.8 5.6 5.2 5.2 5.4 5.3 5.4 5.2 5.1 5.2 5.3 5.3 5.2 5.3 5.4 5.5 5.4 5.0 5.0 5.0 5.3 5.7
7.2 7.3 7.4 7.6 8.4 9.2 9.6 8.5 8.4 8.3 8.2 8.0 8.0 7.5 7.3 7.3 7.2 7.0 6.8 6.8 6.7 6.7 6.5 5.9 5.7 5.5 5.5 5.7 5.7 5.4 5.2 5.3 5.4 5.4 5.3 5.3 5.3 5.5 5.5 5.4 5.4 5.5 5.5 5.6 5.4 5.3 5.5 5.7 5.8
7.0 7.1 7.3 7.5 8.5 8.7 8.4 8.0 8.3 8.4 8.2 7.9 7.6 7.4 7.4 7.2 7.0 6.9 6.8 6.7 6.6 6.7 6.6 6.0 5.7 5.5 5.3 5.4 5.7 5.7 5.5 5.5 5.4 5.2 5.3 5.5 5.5 5.8 5.8 6.1 6.0 5.8 5.7 5.6 5.6 5.6 5.7 5.9 5.9
6.9 6.9 7.5 7.8 8.1 8.0 8.1 7.8 8.2 7.8 8.1 8.0 7.7 7.4 7.4 7.2 6.9 6.7 6.6 6.7 6.7 6.7 6.8 6.0 5.8 5.5 5.2 5.2 5.4 5.7 5.5 5.5 5.5 5.5 5.6 5.8 5.8 6.0 5.8 5.8 5.9 6.1 6.1 6.0 5.8 5.9 5.9 5.9 5.8
6.6 6.8 7.5 8.2 8.3 7.9 8.0 7.9 7.5 7.5 7.9 7.9 7.7 7.6 7.4 7.1 6.9 6.5 6.5 6.7 6.7 6.7 6.8 6.3 6.1 5.6 5.3 5.2 5.3 5.4 5.6 5.6 5.7 5.7 5.8 5.9 5.9 6.0 6.0 6.0 5.9 5.9 5.8 5.8 5.8 5.9 5.8 5.8 5.9
6.5 7.0 7.7 8.0 8.2 7.9 8.1 8.1 7.5 7.6 7.9 7.9 7.7 7.3 7.4 7.2 7.0 6.5 6.6 6.6 6.7 6.7 6.6 6.5 6.3 5.9 5.5 5.2 5.4 5.4 5.5 5.5 5.6 5.6 5.7 5.7 5.8 5.8 5.8 5.8 5.9 5.8 5.8 5.8 5.8 5.8 5.8 5.8 5.8
6.4 6.9 7.6 7.5 7.8 8.3 7.7 7.9 8.0 7.6 7.5 7.9 7.6 7.2 7.5 7.3 7.3 6.8 6.7 6.6 6.6 6.5 6.5 6.3 6.4 6.1 5.7 5.5 5.3 5.5 5.4 5.5 5.6 5.7 5.6 5.7 5.6 5.6 5.7 5.7 5.7 5.8 5.9 5.8 5.8 5.8 5.8 5.9 6.0
6.5 6.8 7.5 7.8 7.6 8.2 7.4 7.5 7.9 8.2 8.1 7.8 7.8 7.7 7.7 7.4 7.5 7.1 6.9 6.9 6.8 6.7 6.4 6.4 6.2 6.2 5.9 5.7 5.5 5.4 5.5 5.5 5.5 5.6 5.7 5.7 5.7 5.8 5.8 5.8 5.9 6.0 6.0 6.0 5.9 5.9 6.0 6.0 6.0
6.4 6.8 7.4 7.7 7.6 7.8 7.4 7.3 7.6 7.8 7.9 8.0 7.9 7.9 7.9 7.8 7.6 7.6 7.3 7.3 7.2 6.9 6.6 6.7 6.4 6.1 6.0 5.9 5.8 5.6 5.4 5.5 5.5 5.5 5.6 5.6 5.7 5.7 5.8 5.8 5.9 5.9 5.9 5.9 5.9 6.0 6.0 6.0 6.0
6.5 7.0 7.2 7.4 7.3 7.4 7.6 7.2 7.5 7.4 7.6 8.2 8.0 8.1 8.0 7.9 7.8 7.7 7.5 7.3 7.3 7.0 6.9 6.9 6.6 6.3 6.1 6.0 5.9 5.9 5.7 5.6 5.6 5.6 5.6 5.6 5.7 5.7 5.8 5.8 5.7 5.7 5.6 5.6 5.7 5.8 5.9 6.0 5.9
6.6 6.8 7.2 7.4 7.1 7.2 7.4 7.3 7.3 7.4 7.7 8.0 7.8 7.7 7.9 7.8 7.9 7.9 7.8 7.6 7.6 7.3 7.0 7.0 6.8 6.5 6.3 6.0 5.9 5.9 6.0 5.9 5.7 5.6 5.7 5.6 5.6 5.6 5.6 5.6 5.6 5.5 5.5 5.5 5.6 5.7 5.7 5.7 5.7
6.3 7.1 6.9 7.1 6.8 7.2 7.3 7.4 7.2 7.5 7.7 7.8 7.9 7.8 7.9 7.8 7.6 7.7 7.8 7.6 7.4 7.4 7.3 7.1 6.9 6.9 6.6 6.4 6.1 5.8 5.8 6.0 6.0 5.8 5.8 5.8 5.8 5.7 5.7 5.7 5.6 5.6 5.5 5.5 5.4 5.4 5.5 5.5 5.3
6.9 6.8 7.0 6.9 6.8 7.0 7.2 7.6 7.4 7.6 7.6 7.7 7.9 7.9 7.9 8.1 7.6 7.8 8.0 7.7 7.5 7.4 7.2 7.2 7.0 6.8 6.6 6.6 6.5 6.4 5.9 5.8 6.0 5.9 5.9 5.8 5.8 5.8 5.7 5.7 5.6 5.6 5.6 5.5 5.4 5.3 5.3 5.1 5.0
6.8 6.7 6.8 6.6 6.9 7.0 7.2 7.5 7.5 7.5 7.6 7.6 7.7 7.8 7.8 7.8 7.7 7.5 7.8 7.9 7.6 7.5 7.3 7.1 7.0 6.8 6.6 6.5 6.4 6.4 6.4 6.3 6.0 6.1 6.0 5.9 5.8 5.8 5.8 5.7 5.5 5.4 5.3 5.2 5.1 5.1 5.0 5.0 4.9
6.6 6.8 7.1 7.0 6.8 7.0 7.2 7.5 8.0 7.8 7.7 7.7 7.7 7.7 7.8 7.9 7.9 7.8 7.4 7.6 7.4 7.5 7.4 7.2 7.1 6.9 6.6 6.4 6.3 6.4 6.3 6.3 6.4 6.1 5.9 6.0 5.9 5.6 5.5 5.5 5.3 5.2 5.1 5.0 5.0 5.0 5.0 5.0 5.0
6.8 7.6 7.4 7.7 6.9 7.2 7.1 7.5 8.2 7.9 7.8 7.8 7.7 7.6 7.6 7.6 7.7 7.5 7.3 7.3 7.2 7.5 7.5 7.2 7.1 7.0 6.8 6.5 6.4 6.5 6.6 6.5 6.2 6.1 5.9 5.9 6.0 6.0 6.0 5.8 5.5 5.4 5.3 5.1 5.0 5.0 5.0 5.0 5.1
7.8 7.5 7.8 7.7 7.5 7.0 7.4 7.3 8.0 7.9 7.6 7.9 7.9 7.7 7.6 7.6 7.8 7.5 7.3 7.1 7.1 7.0 7.1 7.0 7.1 7.1 6.9 6.8 6.7 6.8 6.7 6.7 6.5 6.2 6.1 6.1 6.0 6.0 6.0 6.0 5.9 5.7 5.6 5.5 5.3 5.1 5.0 5.0 5.0
7.5 7.7 7.9 7.8 7.0 7.0 7.2 7.6 7.6 8.1 7.5 7.5 7.2 7.9 8.0 7.8 7.8 7.5 7.2 7.1 7.0 6.9 7.3 7.3 7.4 7.3 7.2 7.1 7.0 7.0 6.9 6.7 6.6 6.5 6.4 6.2 6.1 6.2 6.1 6.0 6.0 5.9 5.8 5.8 5.4 5.2 5.1 5.2 5.2
7.1 7.3 7.6 7.5 6.9 7.0 7.6 7.4 7.7 8.1 7.6 7.7 7.6 8.0 8.0 8.0 7.8 7.7 7.4 7.2 7.2 7.2 7.4 7.7 7.8 7.5 7.1 7.1 7.1 6.9 6.8 6.7 6.7 6.7 6.6 6.5 6.3 6.1 6.1 6.1 6.0 6.0 6.0 6.0 5.7 5.9 5.6 5.4 5.2
6.9 7.1 7.4 7.6 7.2 6.8 7.3 7.5 7.6 7.7 7.6 7.5 7.9 7.7 8.1 8.0 7.9 7.9 7.9 7.8 7.7 7.6 7.2 7.7 7.6 7.2 7.3 7.2 7.2 7.2 7.1 7.2 7.1 7.0 6.8 6.5 6.3 6.3 6.3 6.4 6.3 6.4 6.3 6.3 6.2 6.1 6.0 5.6 5.3
7.1 6.9 7.2 7.1 7.0 7.9 7.4 8.5 8.1 7.8 7.7 7.9 8.1 8.2 8.2 8.1 8.2 7.9 7.7 7.6 7.9 7.5 7.5 7.8 7.1 7.1 7.5 7.0 7.5 7.4 7.2 7.1 7.1 6.8 6.7 6.5 6.5 6.5 6.6 6.6 6.6 6.6 6.6 6.5 6.3 6.1 5.8 5.6 5.7
7.5 6.9 7.0 7.1 7.2 7.5 7.2 7.9 9.0 8.2 7.9 8.0 8.1 8.3 8.5 8.5 8.3 8.3 8.0 7.8 7.8 7.5 7.4 7.4 7.4 7.3 7.1 7.2 7.1 7.0 6.9 7.1 7.2 7.0 6.8 6.8 6.6 6.5 6.4 6.6 6.8 6.9 6.8 6.5 6.4 6.2 6.0 5.8 6.0
7.1 7.0 7.0 6.9 7.5 7.6 7.9 7.8 9.3 8.4 7.9 8.3 8.8 8.2 8.4 8.4 8.3 8.3 7.9 7.5 6.9 6.5 6.8 7.1 7.1 7.4 7.1 7.4 7.6 7.3 6.9 7.1 7.2 7.0 6.8 6.8 6.7 6.6 6.8 6.9 6.9 6.8 6.8 6.6 6.4 6.2 6.2 6.3 6.2
6.9 7.2 7.9 8.1 7.9 8.3 8.3 7.8 9.1 7.5 7.6 7.8 7.8 7.2 8.0 8.2 7.8 8.0 7.8 7.6 7.1 7.4 7.2 7.1 7.1 7.4 7.3 7.3 7.2 6.9 6.9 6.8 6.7 6.6 6.5 6.7 6.8 6.7 6.8 7.0 7.0 6.8 6.9 6.9 6.7 6.5 6.3 6.4 6.3
6.7 7.3 8.4 7.9 8.3 9.0 7.2 7.8 8.0 7.3 7.5 7.5 7.7 7.9 8.2 8.2 8.2 7.9 7.6 7.8 7.5 7.1 7.3 7.4 7.4 7.2 7.4 7.2 7.0 6.7 6.7 6.7 6.7 6.6 6.6 6.5 6.6 6.6 6.8 6.9 7.0 7.0 7.0 6.8 6.7 6.6 6.6 6.4 6.3
7.1 7.7 8.6 8.1 7.6 9.4 7.8 6.9 6.6 6.8 7.1 7.5 7.6 7.7 8.1 8.3 8.3 8.3 8.1 7.9 8.1 8.3 7.8 7.6 7.3 7.1 7.1 7.2 7.0 6.9 6.8 6.9 6.9 6.7 6.5 6.1 6.3 6.4 6.6 6.6 6.8 7.1 7.0 6.8 6.7 6.7 6.6 6.4 6.2
7.2 7.8 7.8 7.6 8.3 8.6 8.7 7.7 8.0 6.2 6.3 7.3 7.6 7.7 7.9 8.2 8.5 8.3 8.1 8.2 8.1 8.0 8.0 8.0 7.9 7.8 7.5 7.2 7.2 7.1 6.9 6.9 6.8 6.6 6.3 5.9 6.1 6.1 6.3 6.7 6.7 6.7 7.0 6.8 6.8 6.6 6.6 6.5 6.4
7.2 7.5 7.7 8.4 8.5 9.6 9.2 8.7 6.4 5.9 7.0 7.4 7.7 7.9 8.0 8.0 8.2 8.5 8.4 8.4 8.0 8.1 8.5 8.5 8.2 8.1 8.0 7.7 7.5 7.3 7.3 7.1 6.8 6.6 6.3 6.2 5.9 5.8 6.1 6.4 6.5 6.8 7.0 6.9 6.8 6.7 6.5 6.4 6.2
6.8 8.0 7.9 8.0 8.3 8.1 9.6 8.3 5.5 6.3 6.7 7.0 7.4 7.6 7.7 7.8 8.1 8.3 8.6 8.5 8.3 8.2 8.3 8.4 8.4 8.2 8.1 7.9 7.7 7.3 7.2 7.0 6.8 6.6 6.4 5.9 5.8 6.0 5.8 6.4 6.4 6.6 6.8 7.0 6.7 6.7 6.5 6.4 6.2
Wind_Speed
11 11 4 5 7 6 9 3 2 5 5 5 11 1 3 10 2 4 11 10 18 18 21 20 16 13 12 11 11 12 14 14 13 15 20 13 19 19 19 20 21 21 22 23 22 22 21 19 15
9 5 5 3 8 10 7 3 8 4 6 9 10 4 6 5 6 12 15 15 18 18 21 20 16 13 12 13 11 13 15 14 12 13 18 17 18 18 18 18 20 21 21 21 20 19 17 16 13
7 6 5 5 9 12 1 1 2 3 9 13 9 2 2 4 6 16 17 19 18 16 19 21 17 15 13 13 12 13 15 15 13 13 15 17 18 19 19 18 17 19 20 20 18 17 15 13 12
6 5 5 8 13 3 3 3 3 10 9 11 6 8 6 4 10 9 19 20 18 15 18 22 17 16 14 13 12 13 14 16 16 14 15 17 17 17 17 17 18 19 19 17 16 14 13 12 10
5 4 8 11 13 5 6 2 8 11 11 11 10 7 5 4 8 17 19 17 17 14 18 20 17 15 14 13 13 12 13 14 14 16 17 18 17 16 17 18 18 17 16 15 13 12 11 10 8
7 5 9 12 14 6 6 3 10 9 8 10 7 9 6 7 15 18 18 17 15 15 19 21 17 15 14 13 12 13 13 14 14 14 16 16 16 16 16 17 16 15 14 12 11 10 9 9 10
14 10 14 11 8 8 9 3 10 12 10 11 5 6 6 11 16 16 16 17 16 15 16 19 19 15 13 13 13 13 13 14 14 14 14 15 16 16 16 15 15 13 12 11 10 10 10 10 12
10 9 14 12 10 10 5 4 4 13 10 4 8 6 8 17 16 15 16 16 17 14 10 16 18 17 15 14 12 13 13 14 15 15 14 15 15 16 15 15 12 11 10 9 9 10 8 9 10
9 11 14 16 11 7 6 7 4 3 8 9 9 1 12 23 18 18 17 17 17 13 13 10 15 15 14 14 14 13 12 13 15 15 15 17 15 14 15 14 11 10 8 8 8 6 7 10 11
14 14 19 9 8 5 7 4 7 8 11 7 9 8 21 24 21 21 20 19 20 18 15 12 13 14 15 14 15 13 14 13 12 14 12 12 12 10 13 11 9 8 7 7 7 7 9 12 10
17 19 17 12 10 8 8 7 5 8 12 13 14 17 24 25 22 21 21 20 21 20 14 15 13 16 15 13 14 13 12 11 11 11 9 11 12 13 11 11 10 10 7 9 9 9 5 7 6
17 19 19 16 10 7 10 6 8 12 9 7 12 20 24 27 24 23 22 21 22 22 19 17 16 13 15 14 11 12 11 11 10 10 9 9 8 8 8 8 8 6 5 6 6 8 9 11 11
19 19 17 18 10 13 9 12 11 12 11 5 11 20 25 24 23 21 20 19 20 21 20 18 17 15 13 12 12 11 10 11 11 10 9 8 7 5 6 6 5 5 6 6 7 8 10 11 12
11 21 16 14 17 15 14 16 7 11 12 10 17 21 23 26 25 21 20 20 20 20 20 19 18 15 16 11 12 11 11 11 10 9 10 8 7 7 6 6 5 6 6 6 7 7 8 9 11
15 14 18 16 14 13 15 18 13 15 10 15 18 19 21 23 23 22 20 19 19 17 19 18 17 15 14 13 12 12 13 12 9 9 9 7 6 7 5 5 5 6 8 9 9 8 9 8 11
14 15 17 19 18 17 15 20 21 16 13 15 17 17 20 23 22 20 20 19 18 17 18 19 15 17 15 13 12 11 12 10 10 9 9 9 8 9 7 6 5 7 6 6 6 5 6 6 7
12 14 20 17 16 19 21 17 19 13 14 14 16 17 21 20 21 19 20 20 20 18 18 18 18 18 16 13 12 11 13 10 8 9 8 8 8 8 7 6 7 7 6 5 5 5 6 7 7
15 17 10 16 17 18 22 22 18 11 16 15 16 16 18 19 22 21 20 20 20 18 18 19 16 17 16 11 10 9 8 8 9 8 7 8 7 7 7 7 7 6 5 5 5 6 6 7 8
9 14 14 11 6 13 21 20 23 16 14 15 15 18 19 20 20 20 20 20 19 19 18 19 18 17 13 11 11 10 9 8 7 8 8 8 7 8 8 7 8 6 5 5 8 8 10 8 9
12 14 12 6 9 7 13 18 20 19 16 15 16 18 20 19 18 20 19 20 20 20 19 20 20 20 15 12 10 8 8 7 7 8 9 10 10 10 9 7 6 7 5 7 8 11 8 8 10
18 15 14 11 8 13 10 14 20 22 14 12 13 15 18 20 20 21 22 22 20 19 21 20 21 22 19 18 11 8 8 6 6 7 7 9 11 11 9 9 8 8 7 7 9 10 10 8 8
19 16 14 12 8 11 18 10 20 21 22 19 14 14 17 19 20 20 20 21 22 19 18 18 19 20 18 19 15 15 12 11 8 9 8 8 11 10 9 7 8 8 6 6 8 7 8 6 8
16 11 15 12 13 6 12 9 10 16 21 22 16 11 15 19 22 22 22 21 19 17 19 16 16 16 16 17 16 13 14 9 7 8 11 9 8 10 9 8 7 6 6 6 7 8 8 7 7
7 13 10 8 9 11 16 14 12 8 11 19 18 10 12 16 18 18 18 19 19 18 17 17 19 18 16 17 17 17 16 13 10 12 11 9 7 6 9 9 7 7 6 6 6 8 9 7 6
19 19 9 10 10 10 11 11 2 5 4 5 7 2 5 12 13 14 17 17 17 18 14 14 17 19 18 16 18 17 16 15 16 14 11 11 7 6 7 8 7 6 6 7 7 7 7 7 7
26 22 9 15 15 13 8 10 8 5 6 7 9 10 10 7 4 12 14 16 18 19 15 14 13 12 13 14 14 14 15 9 9 10 9 7 8 7 10 8 9 9 9 9 8 5 6 6 6
23 20 15 2 4 11 11 5 7 8 9 11 11 12 12 10 7 4 4 11 14 15 12 14 16 14 13 13 11 11 10 12 10 9 9 7 7 8 8 10 8 10 10 10 9 6 7 8 7
15 18 12 9 13 11 11 15 10 11 9 10 12 13 13 12 11 8 2 6 9 12 13 12 13 17 15 16 13 11 12 12 10 9 11 10 8 9 11 10 9 10 10 10 9 8 9 9 8
11 16 16 14 11 14 10 9 8 10 8 10 12 13 14 13 13 12 11 6 8 7 6 9 11 11 10 12 11 12 10 10 10 8 9 9 10 8 12 11 10 11 10 10 9 10 11 11 9
6 14 21 12 19 12 11 7 11 11 10 9 11 12 13 15 14 14 14 14 16 9 3 4 8 10 9 10 12 12 11 12 11 10 11 10 10 9 12 12 12 11 11 10 10 11 11 12 11
Wind_Direction
161 177 205 236 239 238 250 187 288 175 174 122 149 189 179 61 36 51 130 137 135 140 140 150 147 154 148 137 122 110 102 106 104 102 99 99 103 106 107 108 106 101 103 106 109 107 106 105 102
164 183 229 260 252 222 223 163 210 166 86 144 146 168 169 82 56 123 132 147 146 140 144 149 148 153 147 139 128 116 110 104 103 104 111 109 106 103 101 98 103 109 111 107 108 104 98 93 90
181 224 251 242 242 252 316 229 247 111 151 154 151 281 61 84 96 140 122 143 140 144 149 131 144 150 146 136 128 120 114 110 104 104 106 104 105 104 105 104 105 105 104 106 103 99 97 92 85
179 194 224 244 236 231 278 4 208 141 155 170 157 133 108 10 148 134 140 143 141 144 148 130 145 146 143 133 127 124 119 116 114 112 106 104 104 104 104 104 104 103 105 102 93 88 84 83 83
206 246 240 238 243 249 229 341 188 175 159 178 200 133 100 105 130 137 147 147 140 149 136 144 141 140 140 135 130 122 118 116 112 110 113 109 107 101 101 100 99 98 99 98 97 93 89 87 84
209 262 235 233 229 212 235 243 197 192 168 169 191 143 95 130 146 149 151 139 144 150 144 140 140 141 137 127 125 122 117 112 108 105 106 113 115 112 106 107 106 104 102 101 98 92 83 74 67
243 219 242 254 248 234 221 229 210 200 188 184 139 149 113 159 148 149 148 143 148 137 143 149 152 145 133 135 132 126 118 114 110 108 111 114 115 114 112 111 111 112 110 105 93 82 73 71 70
240 247 240 231 228 226 151 203 252 208 187 84 181 174 163 172 156 160 150 146 141 147 149 149 150 157 151 145 134 129 123 120 113 112 116 118 116 118 120 121 114 112 106 97 88 84 80 79 71
227 235 234 228 219 206 171 207 158 161 152 199 172 137 129 153 167 165 158 156 148 148 152 154 154 152 148 144 137 134 123 119 121 123 132 149 136 138 155 102 128 120 112 112 106 103 114 111 91
215 226 232 231 222 207 170 203 168 192 177 180 159 122 135 152 175 168 168 166 159 156 161 158 164 155 154 149 154 145 144 147 136 136 147 139 142 138 128 130 138 127 132 125 115 132 157 198 123
220 237 228 224 236 235 208 217 195 216 206 198 193 160 156 162 171 178 177 176 165 162 164 166 172 160 164 149 158 154 148 142 136 138 157 131 141 150 156 144 151 151 171 162 159 158 107 62 77
239 233 242 225 190 207 225 232 216 228 228 247 196 172 165 173 172 183 183 176 169 167 167 171 172 164 166 156 170 155 147 148 150 145 150 145 159 161 153 152 141 164 149 125 116 95 93 85 86
229 235 231 239 214 225 234 228 235 226 236 251 161 172 177 181 177 182 188 177 174 170 170 173 175 170 166 167 156 165 147 163 141 161 163 169 157 157 173 142 157 131 142 127 116 109 102 101 89
214 235 231 236 226 226 226 232 209 232 214 210 170 181 183 185 182 181 187 184 180 174 171 169 180 173 169 171 165 161 169 144 162 155 154 173 181 167 165 161 147 126 130 116 121 119 113 93 95
234 236 231 221 226 218 225 237 222 238 193 202 192 190 188 190 185 185 186 184 185 180 171 170 176 174 174 166 169 172 163 167 159 147 152 152 161 163 161 149 148 128 115 124 124 119 109 108 101
213 230 233 216 218 220 224 234 224 209 195 204 204 193 189 192 190 185 185 184 185 184 175 175 174 174 177 173 172 171 162 172 163 165 156 154 148 147 155 151 144 138 145 139 137 137 126 122 116
204 226 219 223 206 220 215 230 239 167 200 204 200 199 191 190 190 190 189 189 182 185 180 179 175 177 176 172 173 171 163 175 170 169 167 160 152 153 159 150 141 167 155 149 151 145 141 131 124
200 223 221 220 200 222 224 234 232 195 213 211 195 198 197 197 196 191 190 191 183 182 182 182 180 176 179 170 172 172 174 167 168 174 179 172 160 159 165 148 154 178 169 161 158 149 147 139 132
247 219 232 213 147 232 223 228 230 203 219 212 200 194 200 202 196 192 188 190 184 179 185 185 180 177 179 178 180 178 179 177 177 178 166 168 162 166 173 164 162 182 178 165 160 152 151 143 138
210 209 214 199 199 234 224 226 230 207 209 219 206 202 197 196 194 190 189 191 189 180 188 188 185 179 182 186 182 186 184 187 180 165 170 170 171 174 176 174 171 176 161 162 167 166 157 158 174
217 222 223 235 194 227 259 234 224 234 223 227 230 211 199 192 192 189 192 193 189 187 190 193 189 185 187 183 184 175 163 163 179 174 171 173 177 178 180 175 171 168 177 178 176 176 173 168 183
211 218 229 225 223 222 204 237 211 220 218 216 212 211 201 197 194 193 198 198 192 190 191 195 198 196 188 185 179 185 185 185 190 182 174 169 177 176 172 175 171 172 179 179 185 186 190 191 187
224 196 210 210 218 244 202 237 239 216 215 222 202 201 204 201 196 196 194 200 193 188 192 196 195 202 183 190 188 193 204 194 176 175 167 173 172 175 169 171 171 168 178 172 182 181 201 197 192
156 178 185 205 218 232 222 216 205 196 239 225 214 171 208 207 204 204 194 194 193 193 190 194 200 194 203 185 195 201 202 190 179 178 177 175 172 171 170 159 165 163 158 170 183 189 190 198 200
185 171 171 200 203 231 189 200 183 80 22 341 325 21 200 206 204 202 196 198 202 198 194 194 205 197 202 207 203 200 202 191 193 182 180 177 173 177 166 160 162 163 158 158 158 183 177 180 192
199 194 195 197 207 196 157 216 141 80 85 84 87 79 61 57 184 202 206 196 204 203 183 184 198 201 198 204 208 207 202 197 204 193 168 174 175 180 157 166 162 152 150 146 155 159 171 165 165
197 207 224 261 346 211 181 116 125 118 98 90 84 76 65 55 56 16 271 210 214 202 181 193 194 194 195 193 201 193 183 181 180 159 159 166 158 144 153 167 160 154 151 149 150 150 151 146 143
233 205 204 222 189 199 191 179 146 155 111 86 72 69 60 54 48 37 6 254 218 210 193 198 209 201 191 193 187 181 177 175 171 159 160 164 147 151 158 168 162 156 151 150 149 147 145 142 142
195 214 214 230 235 219 182 190 106 125 91 76 58 48 49 49 43 42 37 46 218 196 179 173 193 198 173 173 175 174 162 152 154 165 159 156 145 159 167 163 167 161 154 157 159 154 149 145 142
314 230 212 223 208 234 235 123 125 114 89 77 65 51 42 39 40 47 46 48 35 44 82 172 194 191 171 171 162 160 154 151 158 163 160 155 156 164 173 163 169 161 161 162 163 160 155 149 148